Flag for Syria Weather past 2 weeks in Aleppo, Syria

Now
52 °F

Thundershowers. Overcast.


Feels Like: 52 °F
Forecast: 43 / 63 °F
Wind: 1 mph from Southeast

Location: Iskenderun

Current Time: Mar 3, 2015 at 5:38:36 AM

Latest Report: Mar 3, 2015 at 4:00 AM


Visibility: 6 mi

Pressure: 30.02 "Hg

Humidity: 85%

Dew point: 47 °F

Location of AleppoLocation

Historic Weather in Aleppo — Graph

°F

Aleppo temperature yesterday

Maximum temperature yesterday: 65 °F (at 1:00 PM)
Minimum temperature yesterday: 51 °F (at 10:00 PM)
Average temperature yesterday: 59 °F

Past Weeks' High & Low Weather Summary

 TemperatureHumidityPressure
High74 °F (Feb 27, 1:00 PM)93% (Feb 20, 8:00 AM)30.28 "Hg (Feb 20, 8:00 AM)
Low38 °F (Feb 20, 8:00 AM)20% (Feb 27, 1:00 PM)29.62 "Hg (Feb 20, 1:00 PM)
Average57 °F57%29.98 "Hg
* Reported Feb 16 8:00 AM — Mar 3 4:00 AM, Aleppo, Weather by CustomWeather, © 2015

Note: Actual official high and low records may vary slightly from our data, if they occured in-between our weather recording intervals... More about our weather records

Advertising

Aleppo weather history for previous 24 hours

 ConditionsComfort  
Time TempWeatherWind HumidityBarometerVisibility
4:00 AM
Tue, Mar 3
52 °FThundershowers. Overcast.1 mph85%30.02 "Hg6 mi
3:00 AM52 °FSprinkles. Overcast.3 mph90%30.02 "Hg6 mi
2:00 AM52 °FSprinkles. Overcast.5 mph87%30.03 "Hg6 mi
1:00 AM51 °FThundershowers. Overcast.7 mph91%30.03 "Hg6 mi
12:00 AM52 °FThundershowers. Overcast.3 mph92%30.03 "Hg6 mi
10:00 PM
Mon, Mar 2
51 °FThundershowers. Overcast.6 mph92%30.03 "Hg6 mi
9:00 PM55 °FThundershowers. Overcast.12 mph89%30.03 "Hg6 mi
8:00 PM60 °FThundershowers. Overcast.3 mph72%30.01 "Hg6 mi
7:00 PM61 °FPassing clouds.2 mph69%30.01 "Hg12 mi
6:00 PM61 °FPassing clouds.2 mph69%29.99 "Hg12 mi
5:00 PM63 °FPartly sunny.2 mph62%29.99 "Hg12 mi
4:00 PM64 °FPartly sunny.7 mph63%29.98 "Hg12 mi
3:00 PM63 °FPartly sunny.9 mph64%29.98 "Hg12 mi
2:00 PM64 °FScattered clouds.10 mph61%29.98 "Hg12 mi
1:00 PM65 °FPassing clouds.8 mph60%29.98 "Hg12 mi
12:00 PM64 °FPassing clouds.3 mph64%29.99 "Hg12 mi
11:00 AM62 °FPartly sunny.1 mph68%30.01 "Hg9 mi
10:00 AM61 °FPartly sunny.No wind72%30.00 "Hg12 mi
9:00 AM60 °FPassing clouds.1 mph78%30.00 "Hg12 mi
8:00 AM56 °FScattered clouds.2 mph82%29.98 "Hg9 mi
7:00 AM54 °FThunderstorms. Partly sunny.3 mph87%29.96 "Hg9 mi
6:00 AM54 °FThundershowers. Overcast.3 mph89%29.96 "Hg5 mi
5:00 AM55 °FThundershowers. Passing clouds.3 mph86%29.93 "Hg1 mi
Weather by CustomWeather, © 2015

See weather overviewHow to use our weather pages